﻿_id,日時,平均風速(m/s),平均風向,最大瞬間風速(m/s),最大風速時風向,気温(℃),湿度(%),10分間移動積算雨量(mm),1時間移動積算雨量(mm),日雨量(mm),累計雨量(mm),日射(日積算)(MJ/m2),日照(日積算)(min),現地気圧(hPa),海面気圧(hPa)
1,2022-02-14T00:00:00,3.8,北北東,6.1,北,5.1,87.6,0,0,2,2,3.44,0,1004.7,1019.1
2,2022-02-14T00:01:00,3.8,北北東,6.1,北,5.1,87.3,0,0,0,2,0,0,1004.7,1019.1
3,2022-02-14T00:02:00,3.8,北北東,6.1,北,5,87,0,0,0,2,0,0,1004.8,1019.2
4,2022-02-14T00:03:00,3.7,北北東,6,北北東,5,86.9,0,0,0,2,0,0,1004.7,1019.1
5,2022-02-14T00:04:00,3.5,北北東,6,北北東,5,86.7,0,0,0,2,0,0,1004.8,1019.2
6,2022-02-14T00:05:00,3.3,北,6,北北東,5,86.7,0,0,0,2,0,0,1004.8,1019.2
7,2022-02-14T00:06:00,3,北,6,北北東,5,86.7,0,0,0,2,0,0,1004.8,1019.2
8,2022-02-14T00:07:00,2.8,北,6,北北東,5.1,86.7,0,0,0,2,0,0,1004.8,1019.2
9,2022-02-14T00:08:00,2.7,北,5.6,北,5.1,86.5,0,0,0,2,0,0,1004.7,1019.1
10,2022-02-14T00:09:00,2.6,北,5.6,北,5.1,86.2,0,0,0,2,0,0,1004.7,1019.1
11,2022-02-14T00:10:00,2.5,北,5.6,北,5.1,86,0,0,0,2,0,0,1004.7,1019.1
12,2022-02-14T00:11:00,2.4,北,5.6,北,5.2,85.9,0,0,0,2,0,0,1004.8,1019.2
13,2022-02-14T00:12:00,2.3,北,5.2,北西,5.1,85.6,0,0,0,2,0,0,1004.8,1019.2
14,2022-02-14T00:13:00,2.2,北,6.4,北,5.2,85.4,0,0,0,2,0,0,1004.8,1019.2
15,2022-02-14T00:14:00,2.4,北,8.2,北北東,5.2,85.2,0,0,0,2,0,0,1004.8,1019.2
16,2022-02-14T00:15:00,2.4,北,8.2,北北東,5.2,85,0,0,0,2,0,0,1004.8,1019.2
17,2022-02-14T00:16:00,2.6,北,8.2,北北東,5.2,84.7,0,0,0,2,0,0,1004.7,1019.1
18,2022-02-14T00:17:00,2.6,北,8.2,北北東,5.2,84.5,0,0,0,2,0,0,1004.7,1019.1
19,2022-02-14T00:18:00,2.6,北,8.2,北北東,5.2,84.3,0,0,0,2,0,0,1004.8,1019.2
20,2022-02-14T00:19:00,2.7,北,8.2,北北東,5.2,84.2,0,0,0,2,0,0,1004.8,1019.2
21,2022-02-14T00:20:00,2.7,北,8.2,北北東,5.2,83.9,0,0,0,2,0,0,1004.8,1019.2
22,2022-02-14T00:21:00,2.7,北,8.2,北北東,5.2,83.7,0,0,0,2,0,0,1004.8,1019.2
23,2022-02-14T00:22:00,2.8,北,8.2,北北東,5.2,83.4,0,0,0,2,0,0,1004.7,1019.1
24,2022-02-14T00:23:00,3,北,8.2,北北東,5.2,83.1,0,0,0,2,0,0,1004.6,1019
25,2022-02-14T00:24:00,2.9,北,7.1,北東,5.2,83,0,0,0,2,0,0,1004.6,1019
26,2022-02-14T00:25:00,2.9,北,7.1,北東,5.2,82.9,0,0,0,2,0,0,1004.6,1019
27,2022-02-14T00:26:00,2.8,北,7.1,北東,5.3,83,0,0,0,2,0,0,1004.6,1019
28,2022-02-14T00:27:00,2.8,北,7.1,北東,5.2,82.7,0,0,0,2,0,0,1004.6,1019
29,2022-02-14T00:28:00,2.8,北,7.1,北東,5.2,82.2,0,0,0,2,0,0,1004.7,1019.1
30,2022-02-14T00:29:00,2.8,北,7.1,北東,5.2,81.9,0,0,0,2,0,0,1004.7,1019.1
31,2022-02-14T00:30:00,2.8,北,7.1,北東,5.2,81.5,0,0,0,2,0,0,1004.6,1019
32,2022-02-14T00:31:00,2.9,北,7.1,北東,5.2,81.3,0,0,0,2,0,0,1004.6,1019
33,2022-02-14T00:32:00,3,北,7.1,北東,5.3,80.9,0,0,0,2,0,0,1004.6,1019
34,2022-02-14T00:33:00,2.8,北北西,7.1,北西,5.4,80.4,0,0,0,2,0,0,1004.5,1018.9
35,2022-02-14T00:34:00,3.1,北,7.1,北西,5.3,79.8,0,0,0,2,0,0,1004.5,1018.9
36,2022-02-14T00:35:00,3.2,北,7.1,北西,5.3,79.5,0,0,0,2,0,0,1004.5,1018.9
37,2022-02-14T00:36:00,3.3,北,7.1,北西,5.2,79.2,0,0,0,2,0,0,1004.4,1018.8
38,2022-02-14T00:37:00,3.3,北,7.1,北西,5.2,79.5,0,0,0,2,0,0,1004.4,1018.8
39,2022-02-14T00:38:00,3.3,北,7.5,北北東,5.2,79.8,0,0,0,2,0,0,1004.4,1018.8
40,2022-02-14T00:39:00,3.3,北,7.5,北北東,5.3,79.7,0,0,0,2,0,0,1004.4,1018.8
41,2022-02-14T00:40:00,3.4,北,7.5,北北東,5.3,79,0,0,0,2,0,0,1004.5,1018.9
42,2022-02-14T00:41:00,3.5,北,7.5,北北東,5.4,78.4,0,0,0,2,0,0,1004.5,1018.9
43,2022-02-14T00:42:00,3.3,北,7.5,北北東,5.3,77.9,0,0,0,2,0,0,1004.5,1018.9
44,2022-02-14T00:43:00,3.4,北北西,7.5,北北東,5.3,77.6,0,0,0,2,0,0,1004.4,1018.8
45,2022-02-14T00:44:00,3.3,北北西,7.5,北北東,5.3,77.6,0,0,0,2,0,0,1004.4,1018.8
46,2022-02-14T00:45:00,3.2,北北西,7.5,北北東,5.3,77.8,0,0,0,2,0,0,1004.4,1018.8
47,2022-02-14T00:46:00,3.1,北北西,7.5,北北東,5.3,78,0,0,0,2,0,0,1004.4,1018.8
48,2022-02-14T00:47:00,3.1,北北西,7.5,北北東,5.3,78.2,0,0,0,2,0,0,1004.3,1018.7
49,2022-02-14T00:48:00,3.1,北北西,7.1,北西,5.2,78.2,0,0,0,2,0,0,1004.3,1018.7
50,2022-02-14T00:49:00,3.1,北北西,7.1,北西,5.2,78.3,0,0,0,2,0,0,1004.3,1018.7
51,2022-02-14T00:50:00,2.9,北北西,6.5,北西,5.2,78.5,0,0,0,2,0,0,1004.3,1018.7
52,2022-02-14T00:51:00,2.8,北北西,6.3,北,5.2,78.7,0,0,0,2,0,0,1004.2,1018.6
53,2022-02-14T00:52:00,2.8,北北西,7.3,北北東,5.2,78.7,0,0,0,2,0,0,1004.2,1018.6
54,2022-02-14T00:53:00,2.9,北北西,7.3,北北東,5.2,78.5,0,0,0,2,0,0,1004.2,1018.6
55,2022-02-14T00:54:00,2.7,北北西,7.3,北北東,5.2,78.5,0,0,0,2,0,0,1004.2,1018.6
56,2022-02-14T00:55:00,2.6,北北西,7.3,北北東,5.2,78.6,0,0,0,2,0,0,1004.1,1018.5
57,2022-02-14T00:56:00,2.5,北北西,7.3,北北東,5.2,78.9,0,0,0,2,0,0,1004.1,1018.5
58,2022-02-14T00:57:00,2.6,北,7.3,北北東,5.2,79.4,0,0,0,2,0,0,1004,1018.4
59,2022-02-14T00:58:00,2.6,北,7.3,北北東,5.2,79.2,0,0,0,2,0,0,1004,1018.4
60,2022-02-14T00:59:00,2.8,北,7.3,北北東,5.1,79.2,0,0,0,2,0,0,1004.1,1018.5
61,2022-02-14T01:00:00,2.9,北,7.3,北北東,5.2,79.6,0,0,0,2,0,0,1004.1,1018.5
62,2022-02-14T01:01:00,3,北,7.3,北北東,5.1,79.7,0,0,0,2,0,0,1004.1,1018.5
63,2022-02-14T01:02:00,2.9,北,7,北北東,5.2,79.9,0,0,0,2,0,0,1004.1,1018.5
64,2022-02-14T01:03:00,2.7,北,7,北北東,5.2,79.7,0,0,0,2,0,0,1004.2,1018.6
65,2022-02-14T01:04:00,2.7,北,7,北北東,5.1,79.5,0,0,0,2,0,0,1004.3,1018.7
66,2022-02-14T01:05:00,2.7,北,7,北北東,5.1,79.5,0,0,0,2,0,0,1004.3,1018.7
67,2022-02-14T01:06:00,2.7,北,6.9,北北東,5.1,79.8,0,0,0,2,0,0,1004.2,1018.6
68,2022-02-14T01:07:00,2.6,北,6.9,北北東,5,79.9,0,0,0,2,0,0,1004.2,1018.6
69,2022-02-14T01:08:00,2.7,北,6.9,北北東,5.1,80.1,0,0,0,2,0,0,1004.2,1018.6
70,2022-02-14T01:09:00,2.4,北,6.3,北北東,5.1,80.3,0,0,0,2,0,0,1004.3,1018.7
71,2022-02-14T01:10:00,2.3,北,6.2,北北東,5.1,80.5,0,0,0,2,0,0,1004.3,1018.7
72,2022-02-14T01:11:00,2.1,北,6.2,北北東,5.1,80.6,0,0,0,2,0,0,1004.4,1018.8
73,2022-02-14T01:12:00,2.1,北,6.2,北北東,5,80.6,0,0,0,2,0,0,1004.4,1018.8
74,2022-02-14T01:13:00,2.1,北,6.2,北北東,5,80.5,0,0,0,2,0,0,1004.5,1018.9
75,2022-02-14T01:14:00,2.1,北,6.2,北北東,5.1,80.7,0,0,0,2,0,0,1004.5,1018.9
76,2022-02-14T01:15:00,2.2,北,6.2,北北東,5.1,80.8,0,0,0,2,0,0,1004.5,1018.9
77,2022-02-14T01:16:00,2.4,北,6.3,北北東,5.1,80.9,0,0,0,2,0,0,1004.6,1019
78,2022-02-14T01:17:00,2.5,北,6.3,北北東,5.1,80.9,0,0,0,2,0,0,1004.6,1019
79,2022-02-14T01:18:00,2.4,北,6.6,北,5.1,81,0,0,0,2,0,0,1004.6,1019
80,2022-02-14T01:19:00,2.6,北,6.6,北,5.1,81,0,0,0,2,0,0,1004.6,1019
81,2022-02-14T01:20:00,2.6,北,6.6,北,5.1,81,0,0,0,2,0,0,1004.7,1019.1
82,2022-02-14T01:21:00,2.8,北,8,北東,5.1,80.7,0,0,0,2,0,0,1004.7,1019.1
83,2022-02-14T01:22:00,2.8,北,8,北東,5.2,80.7,0,0,0,2,0,0,1004.7,1019.1
84,2022-02-14T01:23:00,2.9,北,8,北東,5.1,80.4,0,0,0,2,0,0,1004.8,1019.2
85,2022-02-14T01:24:00,3.1,北,8,北東,5,80.2,0,0,0,2,0,0,1004.7,1019.1
86,2022-02-14T01:25:00,3.2,北,8,北東,5,80.4,0,0,0,2,0,0,1004.7,1019.1
87,2022-02-14T01:26:00,3.2,北,8,北東,5.1,80.6,0,0,0,2,0,0,1004.7,1019.1
88,2022-02-14T01:27:00,3.3,北,8,北東,5.2,80.9,0,0,0,2,0,0,1004.7,1019.1
89,2022-02-14T01:28:00,3.4,北,8,北東,5.1,80.6,0,0,0,2,0,0,1004.8,1019.2
90,2022-02-14T01:29:00,3.3,北,8,北東,5.1,80.4,0,0,0,2,0,0,1004.7,1019.1
91,2022-02-14T01:30:00,3.3,北,8,北東,5.1,80.4,0,0,0,2,0,0,1004.8,1019.2
92,2022-02-14T01:31:00,3.3,北,6.4,北北東,5.1,80.1,0,0,0,2,0,0,1004.8,1019.2
93,2022-02-14T01:32:00,3.4,北,6.4,北北東,5.1,79.7,0,0,0,2,0,0,1004.8,1019.2
94,2022-02-14T01:33:00,3.4,北,6.3,北,5.1,79.4,0,0,0,2,0,0,1004.8,1019.2
95,2022-02-14T01:34:00,3.4,北,7.2,北,5.1,79.2,0,0,0,2,0,0,1004.8,1019.2
96,2022-02-14T01:35:00,3.5,北,7.9,北北東,5.1,78.9,0,0,0,2,0,0,1004.7,1019.1
97,2022-02-14T01:36:00,3.6,北,7.9,北北東,5.2,78.8,0,0,0,2,0,0,1004.7,1019.1
98,2022-02-14T01:37:00,3.5,北,7.9,北北東,5.2,78.6,0,0,0,2,0,0,1004.7,1019.1
99,2022-02-14T01:38:00,3.7,北,8.7,北北東,5.2,78.3,0,0,0,2,0,0,1004.7,1019.1
100,2022-02-14T01:39:00,3.9,北,8.7,北北東,5.2,78.2,0,0,0,2,0,0,1004.7,1019.1
101,2022-02-14T01:40:00,4,北,8.7,北北東,5.2,77.8,0,0,0,2,0,0,1004.7,1019.1
102,2022-02-14T01:41:00,3.9,北,8.7,北北東,5.2,77.5,0,0,0,2,0,0,1004.7,1019.1
103,2022-02-14T01:42:00,3.9,北,8.7,北北東,5.2,77.5,0,0,0,2,0,0,1004.7,1019.1
104,2022-02-14T01:43:00,3.9,北,8.7,北北東,5.2,77.6,0,0,0,2,0,0,1004.6,1019
105,2022-02-14T01:44:00,3.7,北,8.7,北北東,5.2,77.2,0,0,0,2,0,0,1004.6,1019
106,2022-02-14T01:45:00,3.6,北,8.7,北北東,5.2,76.8,0,0,0,2,0,0,1004.6,1019
107,2022-02-14T01:46:00,3.5,北,8.7,北北東,5.2,76.6,0,0,0,2,0,0,1004.6,1019
108,2022-02-14T01:47:00,3.6,北,8.7,北北東,5.1,76.9,0,0,0,2,0,0,1004.6,1019
109,2022-02-14T01:48:00,3.4,北,8.2,北北東,5.1,77.2,0,0,0,2,0,0,1004.6,1019
110,2022-02-14T01:49:00,3.2,北,8,北,5.1,77.8,0,0,0,2,0,0,1004.6,1019
111,2022-02-14T01:50:00,3.2,北,8,北,5.1,77.9,0,0,0,2,0,0,1004.6,1019
112,2022-02-14T01:51:00,3.2,北,8,北,5.1,77.7,0,0,0,2,0,0,1004.7,1019.1
113,2022-02-14T01:52:00,3.3,北,8,北,5,77.6,0,0,0,2,0,0,1004.6,1019
114,2022-02-14T01:53:00,3.4,北,10.6,北,5,77.5,0,0,0,2,0,0,1004.6,1019
115,2022-02-14T01:54:00,3.5,北,10.6,北,5,77.7,0,0,0,2,0,0,1004.6,1019
116,2022-02-14T01:55:00,3.6,北,10.6,北,5.1,77.8,0,0,0,2,0,0,1004.5,1018.9
117,2022-02-14T01:56:00,3.5,北,10.6,北,5.1,77.4,0,0,0,2,0,0,1004.6,1019
118,2022-02-14T01:57:00,3.5,北,10.6,北,5.2,77.2,0,0,0,2,0,0,1004.5,1018.9
119,2022-02-14T01:58:00,3.7,北,10.6,北,5.2,76.6,0,0,0,2,0,0,1004.5,1018.9
120,2022-02-14T01:59:00,3.8,北,10.6,北,5.1,76,0,0,0,2,0,0,1004.5,1018.9
121,2022-02-14T02:00:00,3.9,北,10.6,北,5.1,75.9,0,0,0,2,0,0,1004.5,1018.9
122,2022-02-14T02:01:00,3.9,北,10.6,北,5.1,76.1,0,0,0,2,0,0,1004.6,1019
123,2022-02-14T02:02:00,3.8,北,10.6,北,5.1,76.1,0,0,0,2,0,0,1004.6,1019
124,2022-02-14T02:03:00,3.7,北,9.1,北北東,5.2,76.1,0,0,0,2,0,0,1004.6,1019
125,2022-02-14T02:04:00,3.8,北,9.1,北北東,5.1,76,0,0,0,2,0,0,1004.5,1018.9
126,2022-02-14T02:05:00,3.8,北,9.1,北北東,5.2,75.8,0,0,0,2,0,0,1004.6,1019
127,2022-02-14T02:06:00,4,北,9.1,北北東,5.2,75.8,0,0,0,2,0,0,1004.7,1019.1
128,2022-02-14T02:07:00,4,北,9.1,北北東,5.2,75.5,0,0,0,2,0,0,1004.7,1019.1
129,2022-02-14T02:08:00,3.9,北,8.8,北北東,5.1,75.3,0,0,0,2,0,0,1004.7,1019.1
130,2022-02-14T02:09:00,3.9,北,9.2,北北東,5.1,75.3,0,0,0,2,0,0,1004.6,1019
131,2022-02-14T02:10:00,3.9,北,9.2,北北東,5.1,75.5,0,0,0,2,0,0,1004.6,1019
132,2022-02-14T02:11:00,4,北,9.2,北北東,5.1,75.5,0,0,0,2,0,0,1004.5,1018.9
133,2022-02-14T02:12:00,4,北,9.2,北北東,5.1,75.6,0,0,0,2,0,0,1004.6,1019
134,2022-02-14T02:13:00,3.9,北,9.2,北北東,5.1,75.6,0,0,0,2,0,0,1004.6,1019
135,2022-02-14T02:14:00,3.8,北,9.2,北北東,5,75.5,0,0,0,2,0,0,1004.6,1019
136,2022-02-14T02:15:00,3.7,北,9.2,北北東,5.1,75.7,0,0,0,2,0,0,1004.7,1019.1
137,2022-02-14T02:16:00,3.5,北,9.2,北北東,5.1,75.7,0,0,0,2,0,0,1004.6,1019
138,2022-02-14T02:17:00,3.4,北,9.4,北北東,5,75.6,0,0,0,2,0,0,1004.7,1019.1
139,2022-02-14T02:18:00,3.3,北,9.4,北北東,5.1,75.6,0,0,0,2,0,0,1004.7,1019.1
140,2022-02-14T02:19:00,3.3,北,9.4,北北東,5.1,75.5,0,0,0,2,0,0,1004.7,1019.1
141,2022-02-14T02:20:00,3.1,北,9.4,北北東,5.1,75.1,0,0,0,2,0,0,1004.7,1019.1
142,2022-02-14T02:21:00,3.2,北,9.4,北北東,5,75,0,0,0,2,0,0,1004.7,1019.1
143,2022-02-14T02:22:00,3.1,北,9.4,北北東,5,75.1,0,0,0,2,0,0,1004.7,1019.1
144,2022-02-14T02:23:00,3.2,北,9.4,北北東,5,75.4,0,0,0,2,0,0,1004.6,1019
145,2022-02-14T02:24:00,3.2,北,9.4,北北東,5,75.6,0,0,0,2,0,0,1004.6,1019
146,2022-02-14T02:25:00,3.1,北,9.4,北北東,5,75.5,0,0,0,2,0,0,1004.5,1018.9
147,2022-02-14T02:26:00,3.2,北,9.4,北北東,5,75.6,0,0,0,2,0,0,1004.6,1019
148,2022-02-14T02:27:00,3.3,北,8.6,北東,5,75.6,0,0,0,2,0,0,1004.5,1018.9
149,2022-02-14T02:28:00,3.3,北,8,北,5,75.5,0,0,0,2,0,0,1004.4,1018.8
150,2022-02-14T02:29:00,3.3,北,8,北,5,75.3,0,0,0,2,0,0,1004.3,1018.7
151,2022-02-14T02:30:00,3.3,北,8,北,5,75.3,0,0,0,2,0,0,1004.4,1018.8
152,2022-02-14T02:31:00,3.2,北,8,北,4.9,75.4,0,0,0,2,0,0,1004.3,1018.7
153,2022-02-14T02:32:00,3.2,北,8,北,4.9,75.7,0,0,0,2,0,0,1004.2,1018.6
154,2022-02-14T02:33:00,3.1,北,8,北,4.9,75.9,0,0,0,2,0,0,1004.2,1018.6
155,2022-02-14T02:34:00,3.2,北,9.2,北北東,4.9,76,0,0,0,2,0,0,1004.2,1018.6
156,2022-02-14T02:35:00,3.3,北,9.2,北北東,5,75.9,0,0,0,2,0,0,1004.2,1018.6
157,2022-02-14T02:36:00,3.4,北,9.4,北,5,75.6,0,0,0,2,0,0,1004.1,1018.5
158,2022-02-14T02:37:00,3.6,北,9.4,北,5,75.4,0,0,0,2,0,0,1004,1018.4
159,2022-02-14T02:38:00,3.6,北,9.4,北,5,75.2,0,0,0,2,0,0,1004,1018.4
160,2022-02-14T02:39:00,3.7,北,9.4,北,5,75.1,0,0,0,2,0,0,1004,1018.4
161,2022-02-14T02:40:00,3.7,北,9.4,北,5,75.2,0,0,0,2,0,0,1004.1,1018.5
162,2022-02-14T02:41:00,3.8,北,9.4,北,4.9,75.1,0,0,0,2,0,0,1004.1,1018.5
163,2022-02-14T02:42:00,3.7,北,9.4,北,4.9,75.3,0,0,0,2,0,0,1004.2,1018.6
164,2022-02-14T02:43:00,3.9,北,9.4,北,5,75.5,0,0,0,2,0,0,1004.2,1018.6
165,2022-02-14T02:44:00,3.8,北,9.6,北北東,5.1,75.2,0,0,0,2,0,0,1004.2,1018.6
166,2022-02-14T02:45:00,4.1,北,9.6,北北東,5.1,74.5,0,0,0,2,0,0,1004.1,1018.5
167,2022-02-14T02:46:00,4.2,北,9.6,北北東,5.1,73.9,0,0,0,2,0,0,1004.1,1018.5
168,2022-02-14T02:47:00,4,北北西,9.6,北北東,5,73.6,0,0,0,2,0,0,1004.2,1018.6
169,2022-02-14T02:48:00,3.8,北北西,9.6,北北東,5,73.6,0,0,0,2,0,0,1004.2,1018.6
170,2022-02-14T02:49:00,3.8,北北西,9.6,北北東,5.1,73.8,0,0,0,2,0,0,1004.3,1018.7
171,2022-02-14T02:50:00,3.8,北北西,9.6,北北東,5.1,73.6,0,0,0,2,0,0,1004.3,1018.7
172,2022-02-14T02:51:00,3.8,北北西,9.6,北北東,5.1,73.6,0,0,0,2,0,0,1004.3,1018.7
173,2022-02-14T02:52:00,3.9,北北西,9.6,北北東,5.1,73.6,0,0,0,2,0,0,1004.3,1018.7
174,2022-02-14T02:53:00,3.8,北北西,9.6,北北東,5.1,73.5,0,0,0,2,0,0,1004.4,1018.8
175,2022-02-14T02:54:00,3.8,北北西,8.4,北,5.1,73.4,0,0,0,2,0,0,1004.3,1018.7
176,2022-02-14T02:55:00,3.5,北北西,8.4,北,5.1,73.3,0,0,0,2,0,0,1004.3,1018.7
177,2022-02-14T02:56:00,3.5,北,8.4,北,5.1,73.3,0,0,0,2,0,0,1004.3,1018.7
178,2022-02-14T02:57:00,3.4,北,8.4,北,5.1,73.3,0,0,0,2,0,0,1004.3,1018.7
179,2022-02-14T02:58:00,3.5,北,8.4,北,5.1,73.1,0,0,0,2,0,0,1004.3,1018.7
180,2022-02-14T02:59:00,3.3,北,8.4,北,5.1,73.1,0,0,0,2,0,0,1004.3,1018.7
181,2022-02-14T03:00:00,3.3,北,8.4,北,5,73.1,0,0,0,2,0,0,1004.3,1018.7
182,2022-02-14T03:01:00,3.5,北,8.4,北,5.1,73.4,0,0,0,2,0,0,1004.2,1018.6
183,2022-02-14T03:02:00,3.7,北,9.8,北北東,5.1,73.3,0,0,0,2,0,0,1004.3,1018.7
184,2022-02-14T03:03:00,3.9,北,9.8,北北東,5.1,73.4,0,0,0,2,0,0,1004.3,1018.7
185,2022-02-14T03:04:00,3.7,北,9.8,北北東,5.2,73.1,0,0,0,2,0,0,1004.3,1018.7
186,2022-02-14T03:05:00,3.8,北北西,9.8,北北東,5.1,72.8,0,0,0,2,0,0,1004.4,1018.8
187,2022-02-14T03:06:00,3.7,北北西,9.8,北北東,5.1,72.8,0,0,0,2,0,0,1004.3,1018.7
188,2022-02-14T03:07:00,3.9,北北西,9.8,北北東,5.1,72.7,0,0,0,2,0,0,1004.3,1018.7
189,2022-02-14T03:08:00,4,北北西,9.8,北北東,5.1,72.6,0,0,0,2,0,0,1004.2,1018.6
190,2022-02-14T03:09:00,4.1,北北西,9.8,北北東,5.2,72.4,0,0,0,2,0,0,1004.2,1018.6
191,2022-02-14T03:10:00,4.2,北北西,9.8,北北東,5.2,72.2,0,0,0,2,0,0,1004.2,1018.6
192,2022-02-14T03:11:00,4.1,北北西,9.8,北北東,5.2,72.1,0,0,0,2,0,0,1004.2,1018.6
193,2022-02-14T03:12:00,3.9,北北西,9.3,北西,5.2,71.9,0,0,0,2,0,0,1004.3,1018.7
194,2022-02-14T03:13:00,4,北北西,10.1,北,5.2,71.7,0,0,0,2,0,0,1004.3,1018.7
195,2022-02-14T03:14:00,4.1,北北西,10.1,北,5.2,71.5,0,0,0,2,0,0,1004.3,1018.7
196,2022-02-14T03:15:00,4.1,北,10.1,北,5.1,71.7,0,0,0,2,0,0,1004.3,1018.7
197,2022-02-14T03:16:00,4.2,北,10.1,北,5.1,71.8,0,0,0,2,0,0,1004.3,1018.7
198,2022-02-14T03:17:00,4.3,北,11.7,北北東,5.2,71.8,0,0,0,2,0,0,1004.2,1018.6
199,2022-02-14T03:18:00,4.1,北,11.7,北北東,5.2,71.7,0,0,0,2,0,0,1004.3,1018.7
200,2022-02-14T03:19:00,4.1,北,11.7,北北東,5.1,71.4,0,0,0,2,0,0,1004.3,1018.7
201,2022-02-14T03:20:00,4,北,11.7,北北東,5.2,71.3,0,0,0,2,0,0,1004.2,1018.6
202,2022-02-14T03:21:00,4.1,北,11.7,北北東,5.2,71.3,0,0,0,2,0,0,1004.2,1018.6
203,2022-02-14T03:22:00,4.2,北,11.7,北北東,5.2,71.2,0,0,0,2,0,0,1004.3,1018.7
204,2022-02-14T03:23:00,4.1,北,11.7,北北東,5.2,71.2,0,0,0,2,0,0,1004.3,1018.7
205,2022-02-14T03:24:00,4.2,北,11.7,北北東,5.2,71,0,0,0,2,0,0,1004.3,1018.7
206,2022-02-14T03:25:00,4.5,北,12,北北東,5.2,70.6,0,0,0,2,0,0,1004.3,1018.7
207,2022-02-14T03:26:00,4.4,北北西,12,北北東,5.2,70.2,0,0,0,2,0,0,1004.3,1018.7
208,2022-02-14T03:27:00,4.3,北北西,12,北北東,5.2,70.2,0,0,0,2,0,0,1004.2,1018.6
209,2022-02-14T03:28:00,4.6,北北西,12,北北東,5.2,70.1,0,0,0,2,0,0,1004.1,1018.5
210,2022-02-14T03:29:00,4.7,北北西,12,北北東,5.2,69.7,0,0,0,2,0,0,1004.3,1018.7
211,2022-02-14T03:30:00,4.7,北北西,12,北北東,5.2,69.5,0,0,0,2,0,0,1004.2,1018.6
212,2022-02-14T03:31:00,4.8,北北西,12,北北東,5.2,69.5,0,0,0,2,0,0,1004.3,1018.7
213,2022-02-14T03:32:00,4.6,北北西,12,北北東,5.2,69.6,0,0,0,2,0,0,1004.3,1018.7
214,2022-02-14T03:33:00,4.7,北北西,12,北北東,5.2,69.8,0,0,0,2,0,0,1004.3,1018.7
215,2022-02-14T03:34:00,4.6,北北西,12,北北東,5.2,69.9,0,0,0,2,0,0,1004.3,1018.7
216,2022-02-14T03:35:00,4.5,北北西,12.3,北,5.2,69.8,0,0,0,2,0,0,1004.2,1018.6
217,2022-02-14T03:36:00,4.5,北北西,12.3,北,5.2,69.7,0,0,0,2,0,0,1004.2,1018.6
218,2022-02-14T03:37:00,4.6,北北西,12.3,北,5.2,69.6,0,0,0,2,0,0,1004.1,1018.5
219,2022-02-14T03:38:00,4.4,北北西,12.3,北,5.2,69.6,0,0,0,2,0,0,1004.2,1018.6
220,2022-02-14T03:39:00,4.3,北,12.3,北,5.2,69.4,0,0,0,2,0,0,1004.2,1018.6
221,2022-02-14T03:40:00,4.3,北,12.3,北,5.2,69.2,0,0,0,2,0,0,1004.2,1018.6
222,2022-02-14T03:41:00,4.2,北,12.3,北,5.2,69.4,0,0,0,2,0,0,1004.2,1018.6
223,2022-02-14T03:42:00,4.1,北,12.3,北,5.1,69.5,0,0,0,2,0,0,1004.2,1018.6
224,2022-02-14T03:43:00,4,北,12.3,北,5.2,69.8,0,0,0,2,0,0,1004.2,1018.6
225,2022-02-14T03:44:00,3.9,北,12.3,北,5.2,69.8,0,0,0,2,0,0,1004.3,1018.7
226,2022-02-14T03:45:00,3.8,北,9.3,北,5.1,69.7,0,0,0,2,0,0,1004.3,1018.7
227,2022-02-14T03:46:00,3.6,北,9.3,北,5.1,69.8,0,0,0,2,0,0,1004.4,1018.8
228,2022-02-14T03:47:00,3.6,北,9,北北東,5.1,69.9,0,0,0,2,0,0,1004.3,1018.7
229,2022-02-14T03:48:00,3.6,北,8.4,北北東,5.1,69.9,0,0,0,2,0,0,1004.4,1018.8
230,2022-02-14T03:49:00,3.7,北,8.4,北北東,5.2,70.1,0,0,0,2,0,0,1004.3,1018.7
231,2022-02-14T03:50:00,3.8,北,8.5,北,5.2,70.1,0,0,0,2,0,0,1004.3,1018.7
232,2022-02-14T03:51:00,4,北,10.1,北北東,5.1,70,0,0,0,2,0,0,1004.3,1018.7
233,2022-02-14T03:52:00,4.1,北,10.1,北北東,5.1,70.1,0,0,0,2,0,0,1004.3,1018.7
234,2022-02-14T03:53:00,4.2,北,10.1,北北東,5.1,70.1,0,0,0,2,0,0,1004.3,1018.7
235,2022-02-14T03:54:00,4.4,北,10.1,北北東,5.1,70.1,0,0,0,2,0,0,1004.3,1018.7
236,2022-02-14T03:55:00,4.3,北,10.1,北北東,5.1,70.2,0,0,0,2,0,0,1004.3,1018.7
237,2022-02-14T03:56:00,4.3,北,10.1,北北東,5.1,70.4,0,0,0,2,0,0,1004.3,1018.7
238,2022-02-14T03:57:00,4.2,北,10.1,北北東,5.1,70.5,0,0,0,2,0,0,1004.3,1018.7
239,2022-02-14T03:58:00,4.2,北,10.1,北北東,5,70.9,0,0,0,2,0,0,1004.3,1018.7
240,2022-02-14T03:59:00,4,北,10.1,北北東,5,71.2,0,0,0,2,0,0,1004.2,1018.6
241,2022-02-14T04:00:00,3.9,北,10.1,北北東,5,71.2,0,0,0,2,0,0,1004.2,1018.6
242,2022-02-14T04:01:00,3.7,北,8.5,北,5.1,71.4,0,0,0,2,0,0,1004.2,1018.6
243,2022-02-14T04:02:00,3.4,北,8.2,北北東,5.1,71.3,0,0,0,2,0,0,1004.2,1018.6
244,2022-02-14T04:03:00,3.3,北,7.8,北東,5.1,71.4,0,0,0,2,0,0,1004.2,1018.6
245,2022-02-14T04:04:00,3.3,北,9.2,北北東,5.1,71.3,0,0,0,2,0,0,1004.2,1018.6
246,2022-02-14T04:05:00,3.3,北,9.2,北北東,5.1,71.3,0,0,0,2,0,0,1004.2,1018.6
247,2022-02-14T04:06:00,3.5,北,9.9,北,5.2,71.4,0,0,0,2,0,0,1004.3,1018.7
248,2022-02-14T04:07:00,3.5,北,9.9,北,5.1,71.4,0,0,0,2,0,0,1004.3,1018.7
249,2022-02-14T04:08:00,3.5,北,9.9,北,5.1,71.4,0,0,0,2,0,0,1004.4,1018.8
250,2022-02-14T04:09:00,3.6,北,9.9,北,5.1,71.3,0,0,0,2,0,0,1004.4,1018.8
251,2022-02-14T04:10:00,3.6,北,9.9,北,5.2,71.2,0,0,0,2,0,0,1004.5,1018.9
252,2022-02-14T04:11:00,3.6,北,9.9,北,5.1,71.1,0,0,0,2,0,0,1004.5,1018.9
253,2022-02-14T04:12:00,3.8,北,9.9,北,5.1,71.2,0,0,0,2,0,0,1004.4,1018.8
254,2022-02-14T04:13:00,3.9,北,9.9,北,5.2,71.7,0,0,0,2,0,0,1004.6,1019
255,2022-02-14T04:14:00,3.9,北,9.9,北,5.2,71.5,0,0,0,2,0,0,1004.6,1019
256,2022-02-14T04:15:00,4,北,9.9,北,5.1,71.3,0,0,0,2,0,0,1004.6,1019
257,2022-02-14T04:16:00,3.8,北,9.8,北,5.2,71.4,0,0,0,2,0,0,1004.6,1019
258,2022-02-14T04:17:00,3.9,北北西,9.8,北,5.2,71.5,0,0,0,2,0,0,1004.6,1019
259,2022-02-14T04:18:00,3.9,北北西,9.8,北,5.2,71.5,0,0,0,2,0,0,1004.7,1019.1
260,2022-02-14T04:19:00,3.9,北北西,9.5,北北東,5.2,71.4,0,0,0,2,0,0,1004.8,1019.2
261,2022-02-14T04:20:00,3.9,北北西,9.5,北北東,5.2,71.5,0,0,0,2,0,0,1004.8,1019.2
262,2022-02-14T04:21:00,3.9,北北西,9.5,北北東,5.2,71.6,0,0,0,2,0,0,1004.8,1019.2
263,2022-02-14T04:22:00,3.7,北北西,9.5,北北東,5.1,71.6,0,0,0,2,0,0,1004.9,1019.3
264,2022-02-14T04:23:00,3.5,北北西,8.4,北北東,5.1,72,0,0,0,2,0,0,1004.9,1019.3
265,2022-02-14T04:24:00,3.4,北北西,8.4,北北東,5.1,72.2,0,0,0,2,0,0,1004.8,1019.2
266,2022-02-14T04:25:00,3.5,北北西,8.3,北北西,5.2,72.3,0,0,0,2,0,0,1004.9,1019.3
267,2022-02-14T04:26:00,3.6,北,8.4,北,5.2,72.3,0,0,0,2,0,0,1004.9,1019.3
268,2022-02-14T04:27:00,3.6,北,9.5,北北東,5.2,72.4,0,0,0,2,0,0,1004.8,1019.2
269,2022-02-14T04:28:00,3.8,北,10.2,北,5.2,72.5,0,0,0,2,0,0,1004.9,1019.3
270,2022-02-14T04:29:00,3.8,北,10.2,北,5.2,72.5,0,0,0,2,0,0,1004.9,1019.3
271,2022-02-14T04:30:00,3.8,北,10.2,北,5.1,72.8,0,0,0,2,0,0,1004.8,1019.2
272,2022-02-14T04:31:00,3.9,北,10.2,北,5.1,73.3,0,0,0,2,0,0,1005,1019.4
273,2022-02-14T04:32:00,4.1,北,10.2,北,5.1,73.6,0,0,0,2,0,0,1004.9,1019.3
274,2022-02-14T04:33:00,4.2,北,10.2,北,5.1,73.9,0,0,0,2,0,0,1004.8,1019.2
275,2022-02-14T04:34:00,4.4,北,10.2,北,5.1,74,0,0,0,2,0,0,1004.9,1019.3
276,2022-02-14T04:35:00,4.4,北,10.2,北,5.2,74.1,0,0,0,2,0,0,1004.8,1019.2
277,2022-02-14T04:36:00,4.3,北,10.2,北,5.1,73.8,0,0,0,2,0,0,1004.8,1019.2
278,2022-02-14T04:37:00,4,北,10.2,北,5.1,73.7,0,0,0,2,0,0,1004.8,1019.2
279,2022-02-14T04:38:00,3.9,北,9.1,北北東,5.1,73.9,0,0,0,2,0,0,1004.8,1019.2
280,2022-02-14T04:39:00,4,北北西,9.1,北北東,5.1,74,0,0,0,2,0,0,1004.8,1019.2
281,2022-02-14T04:40:00,4.2,北北西,9.9,北西,5,73.9,0,0,0,2,0,0,1004.8,1019.2
282,2022-02-14T04:41:00,4.3,北北西,9.9,北西,5.1,74.1,0,0,0,2,0,0,1004.8,1019.2
283,2022-02-14T04:42:00,4.4,北北西,9.9,北西,5.1,74.2,0,0,0,2,0,0,1004.8,1019.2
284,2022-02-14T04:43:00,4.5,北北西,9.9,北西,5.1,74.1,0,0,0,2,0,0,1004.7,1019.1
285,2022-02-14T04:44:00,4.5,北北西,9.9,北西,5.1,74,0,0,0,2,0,0,1004.8,1019.2
286,2022-02-14T04:45:00,4.4,北北西,9.9,北西,5.2,73.8,0,0,0,2,0,0,1004.8,1019.2
287,2022-02-14T04:46:00,4.5,北北西,9.9,北西,5.1,73.4,0,0,0,2,0,0,1004.7,1019.1
288,2022-02-14T04:47:00,4.8,北北西,9.9,北西,5.1,73.4,0,0,0,2,0,0,1004.6,1019
289,2022-02-14T04:48:00,4.8,北北西,9.9,北西,5.1,73.5,0,0,0,2,0,0,1004.6,1019
290,2022-02-14T04:49:00,4.9,北北西,10.2,北北東,5.1,73.5,0,0,0,2,0,0,1004.6,1019
291,2022-02-14T04:50:00,4.8,北,10.2,北北東,5.1,73.7,0,0,0,2,0,0,1004.5,1018.9
292,2022-02-14T04:51:00,4.7,北,10.2,北北東,5.1,73.6,0,0,0,2,0,0,1004.5,1018.9
293,2022-02-14T04:52:00,4.6,北,10.2,北北東,5.1,73.5,0,0,0,2,0,0,1004.5,1018.9
294,2022-02-14T04:53:00,4.5,北,10.2,北北東,5.1,73.4,0,0,0,2,0,0,1004.5,1018.9
295,2022-02-14T04:54:00,4.4,北,10.2,北北東,5.1,73.2,0,0,0,2,0,0,1004.6,1019
296,2022-02-14T04:55:00,4.4,北,10.2,北北東,5.1,73.1,0,0,0,2,0,0,1004.6,1019
297,2022-02-14T04:56:00,4.3,北,10.2,北北東,5.1,73.2,0,0,0,2,0,0,1004.7,1019.1
298,2022-02-14T04:57:00,4.3,北,10.2,北北東,5.1,73.3,0,0,0,2,0,0,1004.6,1019
299,2022-02-14T04:58:00,4.2,北北西,10.2,北北東,5.2,73,0,0,0,2,0,0,1004.6,1019
300,2022-02-14T04:59:00,4.1,北北西,9.6,北北東,5.2,72.7,0,0,0,2,0,0,1004.6,1019
301,2022-02-14T05:00:00,4.1,北北西,8.7,北西,5.2,72.4,0,0,0,2,0,0,1004.6,1019
302,2022-02-14T05:01:00,4,北北西,8.7,北西,5.1,72.2,0,0,0,2,0,0,1004.6,1019
303,2022-02-14T05:02:00,3.9,北北西,8.7,北西,5.2,72.4,0,0,0,2,0,0,1004.6,1019
304,2022-02-14T05:03:00,3.9,北北西,8.7,北西,5.1,72.3,0,0,0,2,0,0,1004.7,1019.1
305,2022-02-14T05:04:00,3.9,北北西,8.7,北西,5.2,72.3,0,0,0,2,0,0,1004.6,1019
306,2022-02-14T05:05:00,3.9,北北西,8.7,北西,5.2,72,0,0,0,2,0,0,1004.6,1019
307,2022-02-14T05:06:00,3.9,北北西,8.7,北西,5.2,71.6,0,0,0,2,0,0,1004.6,1019
308,2022-02-14T05:07:00,3.9,北北西,8.7,北西,5.2,71.4,0,0,0,2,0,0,1004.6,1019
309,2022-02-14T05:08:00,4,北北西,8.7,北西,5.2,71.2,0,0,0,2,0,0,1004.5,1018.9
310,2022-02-14T05:09:00,3.9,北北西,8.7,北西,5.2,70.9,0,0,0,2,0,0,1004.4,1018.8
311,2022-02-14T05:10:00,3.9,北北西,9.2,北,5.2,70.8,0,0,0,2,0,0,1004.4,1018.8
312,2022-02-14T05:11:00,4,北北西,9.3,北西,5.2,70.5,0,0,0,2,0,0,1004.4,1018.8
313,2022-02-14T05:12:00,4.1,北北西,9.3,北西,5.2,70.4,0,0,0,2,0,0,1004.5,1018.9
314,2022-02-14T05:13:00,4.2,北北西,9.3,北西,5.2,70.2,0,0,0,2,0,0,1004.5,1018.9
315,2022-02-14T05:14:00,4.3,北北西,9.3,北西,5.2,70,0,0,0,2,0,0,1004.5,1018.9
316,2022-02-14T05:15:00,4.3,北北西,9.3,北西,5.2,69.8,0,0,0,2,0,0,1004.4,1018.8
317,2022-02-14T05:16:00,4.4,北北西,9.3,北西,5.2,69.8,0,0,0,2,0,0,1004.5,1018.9
318,2022-02-14T05:17:00,4.4,北北西,9.3,北西,5.2,69.9,0,0,0,2,0,0,1004.6,1019
319,2022-02-14T05:18:00,4.5,北北西,9.3,北西,5.2,69.8,0,0,0,2,0,0,1004.6,1019
320,2022-02-14T05:19:00,4.6,北北西,9.3,北西,5.2,69.8,0,0,0,2,0,0,1004.6,1019
321,2022-02-14T05:20:00,4.6,北北西,9.3,北西,5.2,69.8,0,0,0,2,0,0,1004.5,1018.9
322,2022-02-14T05:21:00,4.4,北北西,8.4,北北東,5.2,69.7,0,0,0,2,0,0,1004.6,1019
323,2022-02-14T05:22:00,4.3,北北西,8.4,北北東,5.2,69.6,0,0,0,2,0,0,1004.6,1019
324,2022-02-14T05:23:00,4.2,北北西,8.1,北北東,5.2,69.6,0,0,0,2,0,0,1004.6,1019
325,2022-02-14T05:24:00,4,北北西,8.1,北北東,5.2,69.2,0,0,0,2,0,0,1004.6,1019
326,2022-02-14T05:25:00,4,北北西,8.1,北北東,5.1,69.3,0,0,0,2,0,0,1004.5,1018.9
327,2022-02-14T05:26:00,3.9,北北西,8.1,北北東,5.2,69.3,0,0,0,2,0,0,1004.5,1018.9
328,2022-02-14T05:27:00,3.9,北北西,8.1,北北東,5.2,69.2,0,0,0,2,0,0,1004.5,1018.9
329,2022-02-14T05:28:00,3.8,北北西,8.1,北北東,5.2,68.8,0,0,0,2,0,0,1004.5,1018.9
330,2022-02-14T05:29:00,3.7,北北西,7.9,北,5.2,68.2,0,0,0,2,0,0,1004.6,1019
331,2022-02-14T05:30:00,3.5,北北西,7.9,北,5.2,67.7,0,0,0,2,0,0,1004.6,1019
332,2022-02-14T05:31:00,3.6,北北西,7.9,北,5.2,67.6,0,0,0,2,0,0,1004.5,1018.9
333,2022-02-14T05:32:00,3.6,北北西,7.9,北,5.2,67.9,0,0,0,2,0,0,1004.6,1019